Wetbulb
69.14 68.84 69.19 69.80 70.06 70.09 69.24 70.22 70.96 70.91 70.47 69.99 70.31 69.80 68.92 70.31 69.85 69.48 69.14 69.32 69.61 69.31 68.50 68.18 67.97 67.79 67.70 67.92 68.06 67.98 67.80 67.48 67.19
68.97 68.46 69.04 69.60 70.25 69.29 69.87 70.78 70.49 70.44 70.25 70.46 69.80 68.72 68.25 69.52 68.86 67.72 67.85 68.32 68.29 68.11 67.49 67.04 66.82 66.87 66.94 66.68 66.61 66.55 66.46 66.36 66.04
69.04 68.40 68.79 69.39 69.79 69.65 69.86 70.00 69.96 70.49 70.38 69.54 68.38 67.35 67.40 67.86 67.33 67.26 67.14 68.00 67.26 67.08 66.53 66.21 66.02 65.89 65.74 65.59 65.47 65.40 65.36 65.44 64.89
69.31 68.99 69.15 69.33 69.63 69.53 69.33 69.38 69.10 70.03 70.01 68.86 67.65 66.60 66.18 66.97 66.42 66.17 66.77 67.38 66.68 66.20 65.70 65.28 65.12 65.05 64.85 64.76 64.70 64.70 64.69 64.34 64.35
70.07 69.23 69.27 69.95 69.92 69.68 69.38 68.86 68.29 68.28 69.47 68.22 67.13 65.95 65.87 66.97 66.69 66.55 66.87 66.58 66.36 65.62 64.95 64.81 64.54 64.30 64.14 64.15 64.11 63.97 63.98 63.90 63.97
68.93 67.85 68.59 69.53 69.63 69.15 68.76 68.57 67.19 68.16 68.23 67.67 66.23 65.59 67.71 67.14 66.84 66.65 67.02 66.12 65.74 65.04 64.42 64.23 63.98 63.81 63.53 63.34 63.21 63.14 63.13 63.14 63.09
69.03 67.41 68.11 69.34 69.03 69.00 68.65 67.62 66.26 66.37 67.96 67.44 65.42 68.20 67.70 67.47 66.84 66.53 66.46 65.90 65.39 64.49 63.93 63.47 63.30 62.94 62.76 62.66 62.57 62.50 62.61 62.39 61.97
69.75 69.50 69.08 69.05 66.00 67.61 67.99 66.81 66.99 67.02 67.17 67.06 67.07 67.66 67.99 68.07 67.30 66.04 65.79 65.45 65.12 64.20 63.64 62.88 62.69 62.18 62.08 61.90 61.83 61.79 61.68 61.40 61.32
69.93 69.55 69.66 69.09 68.61 67.61 67.07 66.74 66.63 66.09 66.25 66.48 66.38 66.67 67.55 68.04 67.67 65.84 65.19 65.66 65.17 64.28 63.70 62.73 62.29 61.77 61.46 61.44 61.06 60.79 60.54 60.53 60.42
68.43 69.28 68.70 68.95 68.81 68.23 67.42 66.77 65.04 65.05 65.13 65.38 65.23 65.38 66.03 66.60 67.26 67.51 63.28 65.28 65.46 64.63 64.06 63.27 62.51 62.01 61.31 61.00 60.65 60.01 59.82 59.62 59.31
68.19 67.98 68.50 68.99 69.01 68.51 67.84 66.89 66.05 64.80 63.68 63.63 64.47 64.66 65.03 65.28 65.23 66.06 66.09 64.11 65.68 65.25 64.60 64.27 63.35 62.79 61.89 61.15 60.49 59.76 59.05 58.46 58.03
67.99 67.54 67.63 68.01 68.28 67.99 67.55 66.75 66.34 65.41 64.27 62.73 63.24 64.43 65.02 65.31 65.17 65.31 65.89 65.52 63.28 65.36 65.23 64.77 64.38 63.58 63.19 62.16 60.77 59.70 58.77 57.66 56.70
67.66 67.05 66.96 67.55 67.51 67.18 66.46 65.89 65.13 64.79 64.35 63.63 62.73 62.71 64.41 65.11 64.93 64.76 65.02 65.31 65.20 64.08 65.25 65.20 64.65 64.38 63.88 63.65 62.60 60.71 59.37 58.08 56.91
67.31 66.58 66.47 66.80 66.61 66.31 65.78 65.32 64.71 63.75 63.55 62.54 62.87 62.43 63.28 64.23 64.33 64.34 64.51 64.73 64.75 65.00 63.64 63.32 63.87 64.50 64.36 64.23 63.99 62.96 60.63 58.82 57.56
67.21 66.68 66.01 66.16 65.76 65.74 65.54 64.54 64.63 63.73 63.46 61.54 61.90 63.94 64.59 64.92 64.82 64.54 64.10 64.14 64.21 64.46 64.28 63.91 62.79 61.96 63.55 64.30 64.19 63.98 63.06 60.14 58.45
67.30 67.26 66.22 66.00 65.14 65.27 65.24 64.52 63.24 62.78 63.58 62.36 62.43 63.00 63.75 63.90 64.14 64.42 64.07 63.38 62.96 63.44 63.54 63.62 63.49 62.85 62.14 63.24 63.47 63.61 63.52 62.53 59.88
67.33 67.10 66.68 66.04 65.30 65.52 64.92 63.87 62.36 62.51 63.24 61.15 61.23 58.60 61.32 62.51 62.82 63.42 62.50 62.78 62.81 61.99 62.06 62.49 62.62 62.64 61.90 61.36 62.34 62.90 62.85 62.92 61.97
67.91 67.24 66.91 66.49 65.82 65.20 64.82 63.84 62.90 61.64 62.35 62.36 60.80 58.07 57.61 60.20 61.29 60.56 61.08 60.65 60.78 60.59 60.03 60.13 60.31 60.58 60.53 60.17 58.24 58.74 60.62 61.97 62.15
67.40 66.89 66.78 66.81 65.96 65.64 65.31 64.16 63.69 62.67 61.23 61.22 61.35 62.70 60.71 58.06 57.08 58.92 56.90 56.32 56.06 57.70 57.44 55.81 54.90 55.11 56.42 56.55 55.70 56.25 57.99 59.85 61.42
64.99 65.93 65.90 66.16 65.87 65.16 64.96 63.43 63.01 62.65 61.80 61.83 60.99 60.84 60.78 59.49 56.92 55.59 58.64 56.99 55.70 54.57 53.55 53.13 52.83 54.16 54.03 53.78 55.63 54.63 56.28 58.63 60.18
MSLP
1019.74 1020.10 1020.34 1020.49 1020.64 1020.69 1020.78 1020.85 1020.87 1021.02 1021.14 1021.35 1021.49 1021.64 1021.52 1021.00 1020.72 1020.88 1021.27 1021.34 1021.79 1021.82 1021.96 1022.01 1021.93 1021.90 1021.90 1021.88 1021.85 1021.75 1021.72 1021.69 1021.70
1020.17 1020.46 1020.70 1020.85 1020.89 1021.05 1021.21 1021.15 1021.27 1021.31 1021.50 1021.72 1021.88 1021.97 1021.77 1021.11 1021.19 1021.35 1021.60 1022.12 1022.32 1022.34 1022.37 1022.38 1022.43 1022.37 1022.34 1022.34 1022.31 1022.22 1022.15 1022.16 1022.14
1020.54 1020.69 1021.01 1021.08 1021.18 1021.43 1021.53 1021.63 1021.67 1021.64 1021.91 1022.16 1022.26 1022.35 1022.11 1021.62 1021.75 1021.90 1022.25 1022.73 1022.73 1022.77 1022.84 1022.86 1022.90 1022.86 1022.89 1022.86 1022.80 1022.70 1022.59 1022.62 1022.71
1020.75 1020.97 1021.28 1021.36 1021.51 1021.65 1021.90 1022.01 1022.06 1022.09 1022.34 1022.51 1022.60 1022.71 1022.57 1021.96 1022.13 1022.07 1022.46 1023.16 1023.04 1023.15 1023.25 1023.33 1023.32 1023.34 1023.33 1023.30 1023.22 1023.08 1023.08 1023.05 1023.02
1020.98 1021.28 1021.49 1021.67 1021.85 1021.98 1022.13 1022.26 1022.35 1022.48 1022.65 1022.79 1022.84 1022.94 1022.67 1022.31 1022.42 1022.49 1023.11 1023.39 1023.35 1023.46 1023.57 1023.62 1023.65 1023.71 1023.75 1023.71 1023.68 1023.53 1023.48 1023.44 1023.42
1021.04 1021.12 1021.73 1021.98 1022.13 1022.28 1022.38 1022.49 1022.71 1022.78 1023.00 1023.04 1023.06 1022.96 1022.38 1022.41 1022.55 1022.78 1023.62 1023.59 1023.65 1023.78 1023.86 1023.89 1023.94 1024.06 1024.14 1024.10 1024.09 1024.00 1023.96 1023.91 1023.93
1020.73 1021.53 1022.01 1022.17 1022.30 1022.53 1022.70 1022.79 1022.90 1022.65 1022.45 1022.86 1023.10 1022.41 1022.53 1022.57 1022.78 1023.17 1023.82 1023.80 1023.89 1024.03 1024.13 1024.18 1024.22 1024.34 1024.44 1024.45 1024.46 1024.38 1024.34 1024.35 1024.39
1020.97 1021.45 1021.71 1021.92 1022.29 1022.13 1022.56 1022.89 1022.29 1022.26 1022.11 1022.25 1022.31 1022.47 1022.55 1022.59 1022.91 1023.61 1023.94 1023.90 1023.98 1024.15 1024.25 1024.37 1024.46 1024.57 1024.65 1024.69 1024.73 1024.71 1024.66 1024.65 1024.64
1020.18 1020.72 1020.96 1021.29 1021.57 1021.67 1021.96 1022.00 1022.18 1022.32 1022.24 1022.13 1022.23 1022.45 1022.54 1022.65 1022.90 1023.43 1023.96 1023.98 1024.00 1024.14 1024.29 1024.43 1024.59 1024.73 1024.83 1024.90 1024.95 1024.96 1024.92 1024.94 1024.96
1020.09 1020.34 1021.00 1021.01 1021.19 1021.45 1021.80 1021.95 1022.13 1022.16 1022.14 1022.22 1022.31 1022.50 1022.63 1022.79 1022.87 1022.94 1023.76 1023.96 1023.98 1024.04 1024.26 1024.39 1024.61 1024.81 1024.91 1024.99 1025.06 1025.12 1025.17 1025.28 1025.22
1020.11 1020.33 1020.68 1020.87 1021.20 1021.39 1021.58 1021.80 1021.97 1022.09 1022.11 1022.13 1022.27 1022.34 1022.52 1022.67 1022.83 1022.80 1022.98 1023.79 1023.91 1023.90 1024.06 1024.22 1024.40 1024.61 1024.82 1024.95 1025.09 1025.21 1025.29 1025.43 1025.40
1020.06 1020.19 1020.49 1020.75 1021.10 1021.34 1021.61 1021.87 1021.94 1021.93 1022.17 1022.03 1022.09 1022.22 1022.26 1022.44 1022.56 1022.68 1022.70 1023.02 1023.75 1023.91 1023.85 1023.94 1024.13 1024.34 1024.52 1024.75 1025.04 1025.18 1025.41 1025.60 1025.61
1019.97 1020.16 1020.41 1020.69 1021.05 1021.28 1021.39 1021.44 1021.61 1021.75 1021.88 1021.86 1021.94 1022.15 1022.27 1022.22 1022.25 1022.48 1022.54 1022.69 1022.74 1023.50 1023.74 1023.85 1023.90 1024.06 1024.23 1024.35 1024.66 1024.93 1025.16 1025.39 1025.50
1019.68 1019.91 1020.21 1020.59 1020.89 1021.15 1021.25 1021.43 1021.51 1021.57 1021.74 1021.83 1021.86 1021.89 1021.89 1021.95 1022.13 1022.15 1022.18 1022.37 1022.71 1022.67 1023.29 1023.67 1023.83 1023.89 1023.90 1023.96 1023.99 1024.40 1024.84 1025.12 1025.19
1019.53 1019.73 1020.00 1020.38 1020.62 1020.94 1021.20 1021.29 1021.53 1021.61 1021.58 1021.79 1021.76 1021.63 1021.53 1021.65 1021.65 1021.62 1021.84 1021.98 1022.35 1022.51 1022.66 1022.91 1023.21 1023.56 1023.59 1023.57 1023.62 1023.76 1024.16 1024.61 1024.93
1019.12 1019.37 1019.68 1020.08 1020.35 1020.46 1020.79 1021.09 1021.31 1021.54 1021.65 1021.66 1021.38 1021.26 1021.20 1021.18 1021.14 1021.24 1021.42 1021.58 1021.98 1022.05 1022.19 1022.29 1022.42 1022.58 1023.25 1023.38 1023.38 1023.48 1023.62 1023.96 1024.42
1018.81 1019.05 1019.31 1019.61 1019.91 1020.12 1020.42 1020.80 1021.08 1021.14 1021.39 1021.17 1021.26 1020.72 1020.54 1020.72 1020.84 1020.86 1021.08 1021.17 1021.38 1021.56 1021.88 1021.95 1022.11 1022.26 1022.46 1022.74 1023.19 1023.36 1023.33 1023.39 1023.86
1018.56 1018.78 1019.04 1019.24 1019.46 1019.59 1019.90 1020.28 1020.54 1020.59 1021.00 1021.21 1020.83 1020.62 1020.11 1020.41 1020.64 1020.82 1020.97 1021.14 1021.28 1021.51 1021.77 1022.02 1022.21 1022.39 1022.59 1022.78 1023.09 1023.11 1023.23 1023.25 1023.28
1018.20 1018.45 1018.75 1018.78 1019.02 1019.17 1019.35 1019.64 1019.81 1020.21 1020.25 1020.93 1020.89 1020.46 1020.61 1020.37 1020.35 1020.74 1021.03 1021.38 1021.47 1021.61 1021.93 1022.32 1022.64 1022.87 1022.83 1022.91 1023.02 1023.04 1023.11 1023.08 1023.09
1018.23 1018.70 1018.38 1018.39 1018.61 1018.95 1018.98 1019.41 1019.61 1019.80 1019.95 1020.00 1020.35 1020.58 1020.60 1020.82 1020.91 1020.69 1020.65 1021.43 1021.66 1021.95 1022.61 1022.59 1022.70 1022.78 1022.92 1023.07 1022.69 1023.05 1023.00 1022.84 1022.93
Wind_Speed
16 15 14 14 13 13 15 13 14 14 14 13 12 10 4 3 11 11 10 11 14 14 14 14 14 15 14 15 15 15 15 15 16
15 15 14 13 13 14 13 14 14 14 14 14 14 10 6 9 9 9 10 11 13 14 14 14 14 14 14 14 14 15 16 15 15
15 15 13 14 14 13 13 14 13 14 14 13 12 9 4 7 9 9 9 10 13 13 13 13 13 13 13 13 13 14 14 15 15
15 13 12 13 13 13 12 12 12 13 13 12 11 9 6 8 7 6 7 9 12 12 12 12 12 12 12 12 12 13 14 14 14
12 10 10 10 10 11 10 11 11 10 11 11 10 7 4 8 7 6 7 9 11 11 11 11 11 11 11 11 11 12 12 13 13
13 10 9 9 10 10 10 11 10 10 9 9 7 6 4 5 4 5 6 8 9 9 9 10 10 10 9 9 10 10 11 12 13
8 9 9 9 9 8 9 10 8 8 7 6 6 2 4 4 4 6 4 7 8 8 8 8 8 8 8 8 8 9 10 11 11
8 7 7 8 8 7 8 8 5 5 4 4 4 2 3 2 3 6 2 4 6 7 7 7 6 6 6 7 7 8 9 9 10
8 7 8 7 6 6 6 4 5 6 5 5 4 3 2 2 2 6 3 2 5 6 6 6 5 5 5 6 6 6 7 7 8
7 7 6 6 5 6 5 5 5 5 5 4 4 4 3 3 2 1 6 4 4 6 6 6 6 6 5 5 5 5 6 7 7
7 7 7 7 6 5 5 5 5 4 5 5 5 5 4 5 4 3 5 7 6 6 7 7 7 7 7 7 6 5 6 6 6
8 7 7 6 6 7 5 5 4 4 4 5 5 5 6 5 5 4 4 6 8 7 8 8 9 9 9 8 7 7 6 5 5
8 6 6 6 6 6 5 5 5 5 4 4 4 5 5 7 6 5 5 5 4 9 9 8 9 10 10 10 11 10 10 9 8
8 7 7 7 6 6 5 5 5 5 4 4 4 5 6 6 5 7 6 6 6 5 10 9 8 7 11 12 11 14 13 12 11
9 7 8 8 7 6 6 6 5 5 4 4 5 6 6 6 6 7 6 6 7 7 7 7 9 12 11 14 13 12 15 15 13
11 8 9 8 8 9 8 6 7 5 5 3 5 6 8 9 7 6 6 7 8 8 8 6 6 7 12 12 15 14 13 17 16
11 11 9 10 8 9 9 9 5 6 5 4 2 4 4 5 6 6 6 8 6 7 8 8 8 7 5 7 11 12 14 13 17
12 11 10 9 9 8 10 10 11 6 6 10 5 3 5 2 4 6 5 6 5 4 4 5 5 6 7 4 7 8 10 14 13
10 11 11 11 8 10 9 9 10 9 7 4 8 10 3 4 4 3 4 4 4 4 2 3 3 3 3 4 6 7 10 13 17
5 9 10 10 8 9 11 10 10 9 9 9 4 8 8 8 7 6 6 2 2 1 1 1 1 3 4 3 3 8 11 13 15
Wind_Direction
114 116 113 115 119 115 106 102 102 102 101 100 94 93 101 86 74 83 62 63 55 54 58 58 58 57 54 53 53 54 54 54 55
120 122 123 123 119 114 107 100 99 97 103 96 97 91 28 78 70 72 66 60 59 61 61 60 58 59 58 57 57 57 58 57 58
127 128 132 131 121 115 107 102 99 103 108 103 94 76 23 78 74 70 70 66 67 64 62 61 59 60 60 62 62 63 64 63 58
131 131 138 135 128 118 111 106 100 106 113 104 93 77 15 77 74 79 81 70 73 69 66 65 63 63 65 67 70 70 69 70 71
130 133 134 130 124 119 118 113 103 109 122 113 104 112 223 86 91 74 81 81 80 77 74 72 70 70 68 70 70 73 75 74 71
157 98 125 123 123 125 123 116 109 105 103 113 119 216 88 86 78 85 88 89 85 85 81 80 79 77 75 74 73 73 74 73 71
129 124 130 126 120 121 125 125 137 202 144 132 170 119 119 88 82 87 93 96 93 93 92 88 87 87 86 83 81 81 80 75 74
154 152 159 151 173 161 166 166 186 168 154 145 136 132 121 117 109 97 102 113 111 110 108 105 104 102 100 95 93 89 86 86 84
168 175 170 171 183 167 187 184 173 181 181 167 163 167 144 164 155 127 172 186 141 137 136 132 128 125 119 112 105 103 99 95 86
174 178 179 186 176 180 184 189 184 194 187 183 193 193 207 200 215 239 165 218 198 168 165 157 157 155 147 139 135 126 111 102 96
183 181 187 188 193 188 191 192 195 194 205 202 205 212 213 232 236 252 179 200 221 206 193 183 181 178 175 168 165 153 135 126 115
183 187 188 194 195 196 198 195 207 206 202 218 219 224 231 231 238 243 254 183 210 230 222 210 198 197 194 186 181 171 162 155 143
186 190 198 196 196 205 207 207 211 222 216 220 220 229 231 246 246 234 237 229 233 197 229 240 225 211 211 210 192 189 184 180 173
197 200 200 197 203 207 211 212 226 218 223 228 233 228 233 235 239 245 238 232 234 236 169 222 244 251 226 225 219 203 196 194 189
201 207 206 201 203 206 206 217 209 234 227 222 235 233 234 241 243 245 233 233 225 229 235 206 219 224 236 234 235 233 204 199 200
202 210 206 202 209 211 209 207 215 212 216 238 234 245 240 238 237 234 240 228 230 234 232 229 233 208 218 236 238 241 236 204 203
211 214 212 208 212 215 210 204 201 228 198 229 254 261 204 220 229 228 232 236 229 232 236 241 239 245 250 228 229 248 248 245 210
212 218 221 216 214 214 210 206 212 216 206 228 241 207 235 187 168 209 222 226 223 244 244 247 262 264 255 246 238 235 248 251 244
208 216 219 221 219 226 215 210 215 218 218 214 236 253 287 249 262 197 213 227 236 227 212 254 267 288 289 266 260 246 244 241 247
228 246 220 223 221 225 218 214 214 213 226 221 196 233 232 244 249 260 241 211 211 143 315 35 328 278 272 281 262 255 247 239 238